Location: Cossonay
(46.5833°N, 6.4167°E)
Time: 22:00:35
(UTC+00:00)

CBERS-1 - Pass Details

Date: 05 October 2020
Orbit: 770 x 777 km, 98.6° (Epoch: 22 October)

Event Time Altitude Azimuth Distance (km) Brightness Sun altitude
Rises 01:13:21 0° 22° (NNE) 3,259 8.0 -41.9°
Reaches altitude 10° 01:15:53 10° 31° (NNE) 2,329 7.1 -41.6°
Enters shadow 01:17:07 17° 39° (NE) 1,910 6.6 -41.5°
